Sigfox identifier Datetime Temperature Humidity SNR
003C111F 2018-10-09 08:30:02 20.6 42 19.1
003C111F 2018-10-09 07:23:53 20.6 41 18.9
003C111F 2018-10-09 06:17:44 20.6 41 18.7
003C111F 2018-10-09 05:11:35 20.6 40 18.7
003C111F 2018-10-09 01:53:10 20.6 39 18.4
003C111F 2018-10-09 00:47:03 20.6 39 18.3
003C111F 2018-10-08 23:40:55 20.6 39 17.8
003C111F 2018-10-08 22:34:47 20.6 38 17.2
003C111F 2018-10-08 21:28:36 20.6 38 16.6
003C111F 2018-10-08 20:22:26 20.6 38 16.3
003C111F 2018-10-08 19:16:17 20.6 38 16.5
003C111F 2018-10-08 18:10:10 20.6 38 16.4
003C111F 2018-10-08 17:04:08 20.6 37 16.3
003C111F 2018-10-08 15:57:59 20.6 37 15.3
003C111F 2018-10-08 14:51:55 20.4 36 15.3
003C111F 2018-10-08 13:45:47 20.4 36 15
003C111F 2018-10-08 12:39:39 20.2 35 15
003C111F 2018-10-08 11:33:34 20.1 34 15.4
003C111F 2018-10-08 10:27:32 20 34 15
003C111F 2018-10-08 09:21:23 20 34 15.2
003C111F 2018-10-08 08:15:13 20 34 15.3
003C111F 2018-10-08 07:09:04 20 35 15.3
003C111F 2018-10-08 06:02:55 20 35 15.4
003C111F 2018-10-08 04:56:46 20 35 14.8
003C111F 2018-10-08 03:50:36 20 36 15.1
003C111F 2018-10-08 02:44:26 20.2 36 15.1
003C111F 2018-10-08 01:38:15 20.2 37 15.2
003C111F 2018-10-08 00:32:06 20.2 37 14.7
003C111F 2018-10-07 23:25:59 20.2 37 15.4
003C111F 2018-10-07 22:19:49 20.2 38 16.1
003C111F 2018-10-07 21:13:38 20.2 38 16.5
003C111F 2018-10-07 20:07:30 20.3 38 16.5
003C111F 2018-10-07 19:01:19 20.3 38 16.5
003C111F 2018-10-07 17:55:11 20.3 38 16.7
003C111F 2018-10-07 16:49:02 20.2 38 16.8
003C111F 2018-10-07 15:42:55 20.3 38 16.8
003C111F 2018-10-07 14:36:43 20.3 38 17.1
003C111F 2018-10-07 13:30:34 20.4 38 17.1
003C111F 2018-10-07 12:24:24 20.3 38 17.3
003C111F 2018-10-07 11:18:14 20.4 38 17.4
003C111F 2018-10-07 10:12:04 20.4 39 17.5
003C111F 2018-10-07 09:05:58 20.4 39 17.6
003C111F 2018-10-07 07:59:50 20.4 39 17.2
003C111F 2018-10-07 06:53:43 20.4 39 17.2
003C111F 2018-10-07 05:47:33 20.4 39 17
003C111F 2018-10-07 04:41:24 20.5 39 17
003C111F 2018-10-07 03:35:14 20.5 39 16.9
003C111F 2018-10-07 02:29:03 20.6 40 16.9
003C111F 2018-10-07 01:22:54 20.6 40 17.1
003C111F 2018-10-07 00:16:45 20.6 40 17.1
003C111F 2018-10-06 23:10:39 20.6 40 17.5
003C111F 2018-10-06 22:04:34 20.6 40 17.6
003C111F 2018-10-06 20:58:23 20.6 40 17.7
003C111F 2018-10-06 19:52:16 20.6 39 17.3
003C111F 2018-10-06 18:46:05 20.6 39 17.2
003C111F 2018-10-06 17:39:59 20.6 40 16.8
003C111F 2018-10-06 16:33:53 20.6 40 16.9
003C111F 2018-10-06 15:27:48 20.6 40 16.8
003C111F 2018-10-06 14:21:40 20.6 40 16.6
003C111F 2018-10-06 13:15:33 20.6 40 16.7
003C111F 2018-10-06 12:09:22 20.6 40 16.7
003C111F 2018-10-06 11:03:12 20.6 40 16.3
003C111F 2018-10-06 09:57:01 20.6 40 16.3
003C111F 2018-10-06 08:50:52 20.7 40 16.2
003C111F 2018-10-06 07:44:42 20.7 40 15.8
003C111F 2018-10-06 06:38:33 20.8 40 15.7
003C111F 2018-10-06 05:32:23 20.8 41 15.8
003C111F 2018-10-06 04:26:15 20.8 41 15.9
003C111F 2018-10-06 03:20:06 20.8 41 16.1
003C111F 2018-10-06 02:13:59 20.9 41 16.2
003C111F 2018-10-06 01:07:50 21 41 16.1
003C111F 2018-10-06 00:01:41 21 42 16.1
003C111F 2018-10-05 22:55:32 21 42 16.1
003C111F 2018-10-05 21:49:20 21 42 15.9
003C111F 2018-10-05 20:43:10 21.1 43 15.9
003C111F 2018-10-05 19:37:01 21.2 43 15.4
003C111F 2018-10-05 18:30:54 21.2 43 15.5
003C111F 2018-10-05 17:24:40 21.3 43 15.5
003C111F 2018-10-05 16:18:31 21.2 43 15.4
003C111F 2018-10-05 15:12:25 21.2 43 14.8
003C111F 2018-10-05 13:00:11 21 40 14.8
003C111F 2018-10-05 11:54:06 20.9 38 14.7
003C111F 2018-10-05 10:48:00 20.6 36 14.9
003C111F 2018-10-05 09:41:55 20.6 34 15.1
003C111F 2018-10-05 08:35:51 20.5 33 15.2
003C111F 2018-10-05 07:29:46 20.5 31 15.3
003C111F 2018-10-05 06:23:38 20.4 31 15.3
003C111F 2018-10-05 05:17:31 20.6 31 15.4
003C111F 2018-10-05 04:11:22 20.6 31 15.2
003C111F 2018-10-05 03:05:17 20.6 31 15.2
003C111F 2018-10-05 01:59:07 20.6 31 15
003C111F 2018-10-05 00:52:58 20.8 31 14.8
003C111F 2018-10-04 23:46:49 20.8 32 14.6
003C111F 2018-10-04 22:40:38 20.8 31 16.4
003C111F 2018-10-04 21:34:27 20.8 31 16.4
003C111F 2018-10-04 20:28:17 20.8 31 16.4
003C111F 2018-10-04 19:22:12 20.8 31 16.6
003C111F 2018-10-04 18:16:00 20.8 31 16.7
003C111F 2018-10-04 17:09:47 20.6 31 16.8
003C111F 2018-10-04 16:03:37 20.6 32 16.7
003C111F 2018-10-04 14:57:26 20.6 32 16.9
003C111F 2018-10-04 13:51:17 20.6 33 16.5
003C111F 2018-10-04 12:45:09 20.6 33 16.7
003C111F 2018-10-04 11:39:00 20.5 34 16.9
003C111F 2018-10-04 10:32:49 20.4 35 17.1
003C111F 2018-10-04 09:26:38 20.2 34 17.3
003C111F 2018-10-04 08:20:29 20.2 34 17.5
003C111F 2018-10-04 07:14:18 20.2 37 17.6
003C111F 2018-10-04 06:08:03 20.2 37 17.7
003C111F 2018-10-04 05:01:52 20.2 38 17.7
003C111F 2018-10-04 03:55:36 20.2 38 17.8
003C111F 2018-10-04 02:49:25 20.2 38 18
003C111F 2018-10-04 01:43:10 20.2 39 18.3
003C111F 2018-10-03 23:30:46 20.4 40 18.9
003C111F 2018-10-03 22:24:33 20.4 41 19.5
003C111F 2018-10-03 21:18:20 20.4 41 20.1
003C111F 2018-10-03 20:12:07 20.6 41 21
003C111F 2018-10-03 17:59:39 20.6 41 22.2
003C111F 2018-10-03 16:53:25 20.8 44 15.5
003C111F 2018-10-03 15:47:20 21 44 9.6
003C111F 2018-10-03 14:41:04 20.8 53 0